GW5991 Weather Reports


Display with metric or nautical units.
time (UTC)temp
F
wind
direction
speed
MPH
gust
MPH
rain 1hr
in
rain 24hr
in
rain mn
in
humidity
%
barometer
mb
20260906224928 62 175 0.0 0.0 0.00 0.00 0.00 76 1017.2
20260906224425 62 259 0.0 0.0 0.00 0.00 0.00 75 1017.3
20260906223920 62 263 0.0 0.0 0.00 0.00 0.00 74 1017.1
20260906223416 62 295 0.0 0.0 0.00 0.00 0.00 77 1017.2
20260906222914 62 227 0.0 0.0 0.00 0.00 0.00 73 1017.2
20260906222414 62 106 0.0 0.0 0.00 0.00 0.00 75 1017.0
20260906221911 62 325 0.0 0.0 0.00 0.00 0.00 76 1017.1
20260906221411 62 21 0.0 0.0 0.00 0.00 0.00 75 1016.9
20260906220906 62 218 0.0 0.0 0.00 0.00 0.00 76 1017.3
20260906220402 62 206 0.0 0.0 0.00 0.00 0.00 76 1017.1
20260906215900 62 192 0.0 0.0 0.00 0.00 0.00 76 1017.3
20260906215355 62 136 0.0 0.0 0.00 0.00 0.00 76 1017.3
20260906214854 62 138 0.0 0.0 0.00 0.00 0.00 76 1017.2
20260906214353 62 150 0.0 0.0 0.00 0.00 0.00 76 1017.2
20260906213852 62 172 0.0 0.0 0.00 0.00 0.00 76 1017.3
20260906213347 62 238 0.0 0.0 0.00 0.00 0.00 76 1017.4
20260906212844 62 80 0.0 0.0 0.00 0.00 0.00 76 1017.3
20260906212340 62 209 0.0 0.0 0.00 0.00 0.00 76 1017.4
20260906211840 62 11 0.0 0.0 0.00 0.00 0.00 77 1017.2
20260906211335 62 246 0.0 0.0 0.00 0.00 0.00 77 1017.2
20260906210830 61 245 0.0 0.0 0.00 0.00 0.00 77 1017.4
20260906210330 61 174 0.0 0.0 0.00 0.00 0.00 77 1017.4
20260906205825 61 231 0.0 0.0 0.00 0.00 0.00 77 1017.4
20260906205322 61 316 0.0 0.0 0.00 0.00 0.00 77 1017.3
20260906204817 61 294 0.0 0.0 0.00 0.00 0.00 78 1017.4
20260906204316 61 160 0.0 0.0 0.00 0.00 0.00 78 1017.5
20260906203815 61 331 0.0 0.0 0.00 0.00 0.00 78 1017.3
20260906203312 61 246 0.0 0.0 0.00 0.00 0.00 77 1017.5
20260906202808 61 86 0.0 0.0 0.00 0.00 0.00 77 1017.4
20260906202307 61 220 0.0 0.0 0.00 0.00 0.00 78 1017.5
20260906201802 61 142 0.0 0.0 0.00 0.00 0.00 77 1017.3
20260906201302 61 279 0.0 0.0 0.00 0.00 0.00 77 1017.4
20260906200758 61 228 0.0 0.0 0.00 0.00 0.00 76 1017.4
20260906200254 61 352 0.0 0.0 0.00 0.00 0.00 77 1017.4
20260906195748 61 268 0.0 0.0 0.00 0.00 0.00 77 1017.2
20260906195245 61 48 0.0 0.0 0.00 0.00 0.00 79 1017.4
20260906194741 61 215 0.0 0.0 0.00 0.00 0.00 78 1017.5
20260906194236 61 0 0.0 0.0 0.00 0.00 0.00 77 1017.4
20260906193731 61 235 0.0 0.0 0.00 0.00 0.00 76 1017.3
20260906193231 61 84 0.0 0.0 0.00 0.00 0.00 79 1017.5
20260906192728 61 299 0.0 0.0 0.00 0.00 0.00 78 1017.5
20260906192222 61 224 0.0 0.0 0.00 0.00 0.00 77 1017.5
20260906191721 61 359 0.0 0.0 0.00 0.00 0.00 78 1017.4
20260906191222 61 98 0.0 0.0 0.00 0.00 0.00 77 1017.4
20260906190721 61 120 0.0 0.0 0.00 0.00 0.00 77 1017.4
20260906190216 61 17 0.0 0.0 0.00 0.00 0.00 77 1017.3
20260906185715 61 34 0.0 0.0 0.00 0.00 0.00 80 1017.4
20260906185214 61 129 0.0 0.0 0.00 0.00 0.00 79 1017.3
20260906184709 61 196 0.0 0.0 0.00 0.00 0.00 77 1017.6
20260906184204 61 257 0.0 0.0 0.00 0.00 0.00 76 1017.4
20260906183700 61 57 0.0 0.0 0.00 0.00 0.00 79 1017.4
20260906183156 60 346 0.0 0.0 0.00 0.00 0.00 78 1017.3
20260906182656 60 359 0.0 0.0 0.00 0.00 0.00 78 1017.4
20260906182152 60 190 0.0 0.0 0.00 0.00 0.00 79 1017.4
20260906181647 59 268 0.0 0.0 0.00 0.00 0.00 81 1017.3
20260906181143 58 229 0.0 0.0 0.00 0.00 0.00 85 1017.4
20260906180638 58 274 0.0 0.0 0.00 0.00 0.00 84 1017.6
20260906180138 57 178 0.0 0.0 0.00 0.00 0.00 84 1017.8
20260906175637 57 17 0.0 0.0 0.00 0.00 0.00 84 1017.6
20260906175132 57 335 0.0 0.0 0.00 0.00 0.00 85 1017.5
20260906174630 57 330 0.0 0.0 0.00 0.00 0.00 86 1017.6
20260906174125 57 348 0.0 0.0 0.00 0.00 0.00 87 1017.8
20260906173620 56 201 0.0 0.0 0.00 0.00 0.00 87 1017.7
20260906173116 56 171 0.0 0.0 0.00 0.00 0.00 87 1017.7
20260906172615 56 219 0.0 0.0 0.00 0.00 0.00 88 1017.7
20260906172111 55 34 0.0 0.0 0.00 0.00 0.00 90 1017.7
20260906171610 54 90 0.0 0.0 0.00 0.00 0.00 91 1017.6
20260906171106 54 262 0.0 0.0 0.00 0.00 0.00 92 1017.5
20260906170602 53 60 0.0 0.0 0.00 0.00 0.00 92 1017.7
20260906165559 53 124 0.0 0.0 0.00 0.00 0.00 96 1017.7
20260906165059 52 295 0.0 0.0 0.00 0.00 0.00 97 1017.6
20260906164558 52 145 0.0 0.0 0.00 0.00 0.00 97 1017.8
20260906164054 52 267 0.0 0.0 0.00 0.00 0.00 97 1017.9
20260906163549 52 67 0.0 0.0 0.00 0.00 0.00 97 1017.9
20260906163044 52 78 0.0 0.0 0.00 0.00 0.00 97 1017.9
20260906162542 51 79 0.0 0.0 0.00 0.00 0.00 97 1018.2
20260906162037 51 11 0.0 0.0 0.00 0.00 0.00 97 1017.8
20260906161532 51 233 0.0 0.0 0.00 0.00 0.00 97 1018.0
20260906161030 50 310 0.0 0.0 0.00 0.00 0.00 97 1017.9
20260906160530 49 94 0.0 0.0 0.00 0.00 0.00 97 1018.1
20260906160028 48 94 0.0 0.0 0.00 0.00 0.00 97 1018.0
20260906155526 48 94 0.0 0.0 0.00 0.00 0.00 97 1018.0
20260906155022 48 187 0.0 0.0 0.00 0.00 0.00 97 1018.1
20260906154517 48 187 0.0 0.0 0.00 0.00 0.00 97 1018.2
20260906154016 48 218 0.0 0.0 0.00 0.00 0.00 97 1018.1
20260906153515 48 261 0.0 0.0 0.00 0.00 0.00 97 1018.1
20260906153011 47 261 0.0 0.0 0.00 0.00 0.00 97 1018.1
20260906152505 47 261 0.0 0.0 0.00 0.00 0.00 97 1018.1
20260906152004 47 261 0.0 0.0 0.00 0.00 0.00 97 1018.1
20260906151500 47 261 0.0 0.0 0.00 0.00 0.00 97 1018.0
20260906150955 47 261 0.0 0.0 0.00 0.00 0.00 97 1018.0
20260906150450 47 261 0.0 0.0 0.00 0.00 0.00 97 1018.1
20260906145949 46 261 0.0 0.0 0.00 0.00 0.00 97 1018.1
20260906145444 46 261 0.0 0.0 0.00 0.00 0.00 97 1018.0
20260906144943 46 261 0.0 0.0 0.00 0.00 0.00 97 1017.9
20260906144438 46 261 0.0 0.0 0.00 0.00 0.00 97 1018.1
20260906143934 46 261 0.0 0.0 0.00 0.00 0.00 97 1017.9
20260906143429 46 261 0.0 0.0 0.00 0.00 0.00 97 1017.9
20260906142925 46 261 0.0 0.0 0.00 0.00 0.00 97 1018.0
20260906142425 46 261 0.0 0.0 0.00 0.00 0.00 97 1017.9
20260906141920 46 196 0.0 0.0 0.00 0.00 0.00 96 1018.0
20260906141420 46 197 0.0 0.0 0.00 0.00 0.00 96 1018.0
20260906140914 46 197 0.0 0.0 0.00 0.00 0.00 96 1017.8
20260906140409 46 197 0.0 0.0 0.00 0.00 0.00 96 1017.9
20260906135907 46 197 0.0 0.0 0.00 0.00 0.00 96 1018.0
20260906135406 46 197 0.0 0.0 0.00 0.00 0.00 96 1017.8
20260906134902 46 197 0.0 0.0 0.00 0.00 0.00 96 1018.0
20260906134357 46 216 0.0 0.0 0.00 0.00 0.00 96 1017.8
20260906133852 46 216 0.0 0.0 0.00 0.00 0.00 96 1017.7
20260906133348 46 258 0.0 0.0 0.00 0.00 0.00 96 1017.6
20260906132843 46 258 0.0 0.0 0.00 0.00 0.00 96 1017.7
20260906132338 47 258 0.0 0.0 0.00 0.00 0.00 96 1017.5
20260906131833 47 258 0.0 0.0 0.00 0.00 0.00 96 1017.4
20260906131328 47 258 0.0 0.0 0.00 0.00 0.00 96 1017.4
20260906130825 47 258 0.0 0.0 0.00 0.00 0.00 96 1017.5
20260906130324 47 259 0.0 0.0 0.00 0.00 0.00 96 1017.4
20260906125823 47 259 0.0 0.0 0.00 0.00 0.00 96 1017.3
20260906125321 47 269 0.0 0.0 0.00 0.00 0.00 96 1017.6
20260906124816 47 271 0.0 0.0 0.00 0.00 0.00 96 1017.4
20260906124312 47 281 0.0 0.0 0.00 0.00 0.00 96 1017.2
20260906123810 47 324 0.0 0.0 0.00 0.00 0.00 96 1017.3
20260906123306 48 324 0.0 0.0 0.00 0.00 0.00 96 1017.4
20260906122805 48 325 0.0 0.0 0.00 0.00 0.00 96 1017.4
20260906122301 48 325 0.0 0.0 0.00 0.00 0.00 96 1017.4
20260906121757 48 325 0.0 0.0 0.00 0.00 0.00 96 1017.4
20260906121253 48 325 0.0 0.0 0.00 0.00 0.00 96 1017.2
20260906120748 48 325 0.0 0.0 0.00 0.00 0.00 96 1017.2
20260906120245 48 331 0.0 0.0 0.00 0.00 0.00 96 1017.2
20260906115741 48 166 0.0 0.0 0.00 0.00 0.00 96 1017.4
20260906115236 48 166 0.0 0.0 0.00 0.00 0.00 95 1017.2
20260906114734 48 166 0.0 0.0 0.00 0.00 0.00 95 1017.4
20260906114230 48 166 0.0 0.0 0.00 0.00 0.00 95 1017.4
20260906113725 48 166 0.0 0.0 0.00 0.00 0.00 95 1017.2
20260906113224 49 166 0.0 0.0 0.00 0.00 0.00 95 1017.5
20260906112724 49 166 0.0 0.0 0.00 0.00 0.00 95 1017.4
20260906112221 48 166 0.0 0.0 0.00 0.00 0.00 95 1017.5
20260906111721 49 183 0.0 0.0 0.00 0.00 0.00 95 1017.5
20260906111215 49 183 0.0 0.0 0.00 0.00 0.00 95 1017.6
20260906110710 49 38 0.0 0.0 0.00 0.00 0.00 95 1017.5
20260906110206 50 261 0.0 0.0 0.00 0.00 0.00 95 1017.5
20260906105705 49 260 0.0 0.0 0.00 0.00 0.00 95 1017.6
20260906105202 50 261 0.0 0.0 0.00 0.00 0.00 95 1017.7
20260906104701 50 261 0.0 0.0 0.00 0.00 0.00 95 1017.5
20260906104201 49 261 0.0 0.0 0.00 0.00 0.00 95 1017.4
20260906103658 49 261 0.0 0.0 0.00 0.00 0.00 95 1017.6
20260906103153 50 261 0.0 0.0 0.00 0.00 0.00 95 1017.6
20260906102649 49 261 0.0 0.0 0.00 0.00 0.00 95 1017.4
20260906102148 49 321 0.0 0.0 0.00 0.00 0.00 94 1017.5
20260906101648 49 321 0.0 0.0 0.00 0.00 0.00 94 1017.5
20260906101142 49 321 0.0 0.0 0.00 0.00 0.00 94 1017.7
20260906100638 49 320 0.0 0.0 0.00 0.00 0.00 94 1017.5
20260906100134 50 321 0.0 0.0 0.00 0.00 0.00 94 1017.5
20260906095634 50 320 0.0 0.0 0.00 0.00 0.00 93 1017.5
20260906095129 50 320 0.0 0.0 0.00 0.00 0.00 93 1017.7
20260906094627 50 321 0.0 0.0 0.00 0.00 0.00 93 1017.5
20260906094124 50 320 0.0 0.0 0.00 0.00 0.00 93 1017.5
20260906093620 50 321 0.0 0.0 0.00 0.00 0.00 93 1017.6
20260906093120 50 321 0.0 0.0 0.00 0.00 0.00 92 1017.4
20260906092615 50 321 0.0 0.0 0.00 0.00 0.00 92 1017.5
20260906092110 50 321 0.0 0.0 0.00 0.00 0.00 92 1017.6
20260906091606 51 324 0.0 0.0 0.00 0.00 0.00 91 1017.4
20260906091102 51 337 0.0 0.0 0.00 0.00 0.00 91 1017.6
20260906090557 51 337 0.0 0.0 0.00 0.00 0.00 90 1017.7
20260906090056 52 337 0.0 0.0 0.00 0.00 0.00 90 1017.7
20260906085555 52 337 0.0 0.0 0.00 0.00 0.00 90 1017.8
20260906085051 52 86 0.0 0.0 0.00 0.00 0.00 90 1017.6
20260906084545 53 186 0.0 0.0 0.00 0.00 0.00 90 1017.8
20260906084044 53 259 0.0 0.0 0.00 0.00 0.00 90 1017.7
20260906083540 53 259 0.0 0.0 0.00 0.00 0.00 90 1017.5
20260906083039 53 219 0.0 0.0 0.00 0.00 0.00 90 1017.5
20260906082535 53 128 0.0 0.0 0.00 0.00 0.00 90 1017.6
20260906082030 53 155 0.0 0.0 0.00 0.00 0.00 91 1017.7
20260906081526 52 142 0.0 0.0 0.00 0.00 0.00 90 1017.5
20260906081021 52 143 0.0 0.0 0.00 0.00 0.00 90 1017.7
20260906080518 52 155 0.0 0.0 0.00 0.00 0.00 90 1017.5
20260906080014 52 155 0.0 0.0 0.00 0.00 0.00 90 1017.6
20260906075513 52 155 0.0 0.0 0.00 0.00 0.00 90 1017.6
20260906075008 52 155 0.0 0.0 0.00 0.00 0.00 90 1017.6
20260906074503 52 155 0.0 0.0 0.00 0.00 0.00 90 1017.5
20260906074001 52 269 0.0 0.0 0.00 0.00 0.00 89 1017.5
20260906073455 52 269 0.0 0.0 0.00 0.00 0.00 89 1017.5
20260906072952 53 301 0.0 0.0 0.00 0.00 0.00 89 1017.5
20260906072447 53 301 0.0 0.0 0.00 0.00 0.00 89 1017.5
20260906071943 53 305 0.0 0.0 0.00 0.00 0.00 89 1017.5
20260906071439 53 318 0.0 0.0 0.00 0.00 0.00 89 1017.5
20260906070935 53 159 0.0 0.0 0.00 0.00 0.00 89 1017.6
20260906070430 53 199 0.0 0.0 0.00 0.00 0.00 88 1017.6
20260906065926 53 216 0.0 0.0 0.00 0.00 0.00 87 1017.3
20260906065420 53 209 0.0 0.0 0.00 0.00 0.00 87 1017.5
20260906064916 53 252 0.0 0.0 0.00 0.00 0.00 88 1017.5
20260906064412 53 143 0.0 0.0 0.00 0.00 0.00 87 1017.5
20260906063912 53 141 0.0 0.0 0.00 0.00 0.00 87 1017.3
20260906063407 54 141 0.0 0.0 0.00 0.00 0.00 87 1017.4
20260906062902 54 251 0.0 0.0 0.00 0.00 0.00 87 1017.4
20260906062401 54 251 0.0 0.0 0.00 0.00 0.00 86 1017.5
20260906061857 54 252 0.0 0.0 0.00 0.00 0.00 86 1017.4
20260906061354 54 20 0.0 0.0 0.00 0.00 0.00 86 1017.3
20260906060848 55 319 0.0 0.0 0.00 0.00 0.00 86 1017.2
20260906060346 55 131 0.0 0.0 0.00 0.00 0.00 84 1017.2
20260906055841 55 185 0.0 0.0 0.00 0.00 0.00 83 1017.3
20260906055337 55 267 0.0 0.0 0.00 0.00 0.00 83 1017.2
20260906054832 55 347 0.0 0.0 0.00 0.00 0.00 83 1017.0
20260906054327 55 172 0.0 0.0 0.00 0.00 0.00 83 1017.3
20260906053823 56 292 0.0 0.0 0.00 0.00 0.00 82 1017.1
20260906053319 56 38 0.0 0.0 0.00 0.00 0.00 82 1017.2
20260906052814 56 241 0.0 0.0 0.00 0.00 0.00 83 1017.1
20260906052310 56 156 0.0 0.0 0.00 0.00 0.00 84 1017.1
20260906051807 56 71 0.0 0.0 0.00 0.00 0.00 84 1017.1
20260906051306 56 157 0.0 0.0 0.00 0.00 0.00 84 1017.2
20260906050802 57 244 0.0 0.0 0.00 0.00 0.00 82 1017.0
20260906050257 57 101 0.0 0.0 0.00 0.00 0.00 81 1017.1
20260906045756 57 116 0.0 0.0 0.00 0.00 0.00 79 1016.9
20260906045250 58 159 0.0 0.0 0.00 0.00 0.00 78 1017.2
20260906044747 58 6 0.0 0.0 0.00 0.00 0.00 77 1017.1
20260906044241 59 332 0.0 0.0 0.00 0.00 0.00 77 1017.2
20260906043737 59 194 0.0 0.0 0.00 0.00 0.00 77 1017.1
20260906043233 59 95 0.0 0.0 0.00 0.00 0.00 75 1016.9
20260906042733 59 198 0.0 0.0 0.00 0.00 0.00 75 1017.0
20260906042231 60 233 0.0 0.0 0.00 0.00 0.00 74 1017.0
20260906041727 60 268 0.0 0.0 0.00 0.00 0.00 74 1017.1
20260906041222 60 74 0.0 0.0 0.00 0.00 0.00 73 1017.1
20260906040718 60 116 0.0 0.0 0.00 0.00 0.00 73 1017.1
20260906040213 60 230 0.0 0.0 0.00 0.00 0.00 73 1016.9
20260906035709 60 42 0.0 0.0 0.00 0.00 0.00 75 1017.1
20260906035205 60 227 0.0 0.0 0.00 0.00 0.00 73 1017.1
20260906034704 60 184 0.0 0.0 0.00 0.00 0.00 72 1017.0
20260906034159 60 117 0.0 0.0 0.00 0.00 0.00 72 1017.0
20260906033655 61 81 0.0 0.0 0.00 0.00 0.00 71 1017.1
20260906033156 61 98 0.0 0.0 0.00 0.00 0.00 71 1016.8
20260906032652 60 280 0.0 0.0 0.00 0.00 0.00 72 1016.9
20260906032152 61 63 0.0 0.0 0.00 0.00 0.00 71 1016.9
20260906031647 61 108 0.0 0.0 0.00 0.00 0.00 70 1016.9
20260906031142 62 208 0.0 0.0 0.00 0.00 0.00 72 1016.8
20260906030642 62 72 0.0 0.0 0.00 0.00 0.00 70 1016.9
20260906030137 62 302 0.0 0.0 0.00 0.00 0.00 69 1017.1
20260906025636 63 70 0.0 0.0 0.00 0.00 0.00 68 1017.0
20260906025136 63 308 0.0 0.0 0.00 0.00 0.00 66 1016.8
20260906024630 63 192 0.0 0.0 0.00 0.00 0.00 67 1016.9
20260906024124 64 272 0.0 0.0 0.00 0.00 0.00 66 1016.7
20260906023621 64 123 0.0 0.0 0.00 0.00 0.00 64 1016.7
20260906023120 64 151 0.0 0.0 0.00 0.00 0.00 62 1016.8
20260906022615 65 74 0.0 0.0 0.00 0.00 0.00 63 1016.7
20260906022111 65 288 0.0 0.0 0.00 0.00 0.00 61 1016.9
20260906021607 65 194 0.0 0.0 0.00 0.00 0.00 64 1016.9
20260906021106 65 106 0.0 0.0 0.00 0.00 0.00 63 1016.8
20260906020605 65 331 0.0 0.0 0.00 0.00 0.00 62 1016.8
20260906020100 66 318 0.0 0.0 0.00 0.00 0.00 60 1016.7
20260906015559 66 152 0.0 0.0 0.00 0.00 0.00 59 1016.7
20260906015059 66 287 0.0 0.0 0.00 0.00 0.00 60 1017.0
20260906014554 66 177 0.0 0.0 0.00 0.00 0.00 59 1016.8
20260906014050 67 158 0.0 0.0 0.00 0.00 0.00 58 1016.7
20260906013544 67 88 0.0 0.0 0.00 0.00 0.00 55 1016.8
20260906013040 68 45 0.0 0.0 0.00 0.00 0.00 54 1016.7
20260906012535 68 104 0.0 0.0 0.00 0.00 0.00 54 1016.8
20260906012034 68 104 0.0 0.0 0.00 0.00 0.00 51 1016.7
20260906011531 69 114 0.0 1.0 0.00 0.00 0.00 50 1016.7
20260906011031 69 104 0.0 0.0 0.00 0.00 0.00 49 1016.5
20260906010526 70 197 0.0 0.0 0.00 0.00 0.00 48 1016.7
20260906010022 70 241 0.0 0.0 0.00 0.00 0.00 48 1016.6
20260906005521 71 337 0.0 0.0 0.00 0.00 0.00 46 1016.6
20260906005021 71 83 0.0 0.0 0.00 0.00 0.00 44 1016.9
20260906004520 72 70 0.0 0.0 0.00 0.00 0.00 46 1016.7
20260906004015 72 45 0.0 0.0 0.00 0.00 0.00 42 1016.6
20260906003510 72 357 0.0 0.0 0.00 0.00 0.00 41 1016.7
20260906003006 72 73 0.0 0.0 0.00 0.00 0.00 44 1016.6
20260906002501 72 262 0.0 0.0 0.00 0.00 0.00 41 1016.6
20260906001956 72 247 0.0 0.0 0.00 0.00 0.00 42 1016.7
20260906001452 72 351 0.0 0.0 0.00 0.00 0.00 41 1016.7
20260906000946 72 266 0.0 0.0 0.00 0.00 0.00 40 1016.8
20260906000441 72 83 0.0 0.0 0.00 0.00 0.00 44 1016.9
20260905235936 72 245 0.0 0.0 0.00 0.00 0.00 42 1017.0
20260905235435 72 92 0.0 0.0 0.00 0.00 0.00 40 1016.8
20260905234931 72 8 0.0 0.0 0.00 0.00 0.00 42 1016.9
20260905234427 72 314 0.0 0.0 0.00 0.00 0.00 40 1017.0
20260905233926 72 87 0.0 0.0 0.00 0.00 0.00 44 1016.9
20260905233422 72 30 0.0 1.0 0.00 0.00 0.00 40 1016.9
20260905232920 72 293 0.0 0.0 0.00 0.00 0.00 41 1016.9
20260905232417 72 86 0.0 0.0 0.00 0.00 0.00 41 1017.1
20260905231912 72 194 0.0 0.0 0.00 0.00 0.00 40 1016.9
20260905231408 72 234 0.0 0.0 0.00 0.00 0.00 42 1017.1
20260905230904 72 357 0.0 0.0 0.00 0.00 0.00 43 1017.1
20260905230402 73 205 0.0 0.0 0.00 0.00 0.00 40 1017.0
20260905225901 74 148 0.0 0.0 0.00 0.00 0.00 40 1017.1
20260905225356 74 76 0.0 0.0 0.00 0.00 0.00 42 1017.1